Voltar ao catálogo

GALAXY 34

AtivoComunicaçõesGEO
NORAD 54027·PAYLOAD·🇺🇸 United States

Lançado Oct 8, 2022 de Cape Canaveral Space Force Station

Loading…

TLE

AtualizadoSource: CelesTrak SupGP

Época: Sep 14, 2026, 00:00 UTC

1 54027C 22128B   26257.00000000  .00000160  00000+0  00000+0 0  2577
2 54027   0.0060 213.8590 0001467 304.9379  65.1876  1.00272027    12

Acompanhe GALAXY 34 em tempo real com AllMySat

Download on the App Store